Location: Ahausen
(50.4985°N, 8.2722°E)
Time: 19:38:42
(UTC+00:00)

YUBILEINY - Pass Details

Date: 05 July 2022
Orbit: 1478 x 1509 km, 82.5° (Epoch: 08 August)

Event Time Altitude Azimuth Distance (km) Brightness Sun altitude
Rises 00:34:16 0° 348° (NNW) 4,656 ? -15.4°
Reaches altitude 10° 00:38:52 10° 9° (N) 3,666 ? -15.2°
Maximum altitude 00:43:56 16° 45° (NE) 3,193 ? -15.0°
Drops below altitude 10° 00:48:58 10° 81° (E) 3,645 ? -14.7°
Sets 00:53:29 0° 102° (ESE) 4,614 ? -14.5°
